Location: ???? ??????? ????
(31.2176°N, 31.6797°E)
Time: 18:15:44
(UTC+00:00)

SL-16 R/B - Pass Details

Date: 29 October 2020
Orbit: 842 x 846 km, 71.0° (Epoch: 29 November)

Event Time Altitude Azimuth Distance (km) Brightness Sun altitude
Rises 16:53:41 0° 176° (S) 3,382 5.3 -23.3°
Reaches altitude 10° 16:56:19 10° 167° (SSE) 2,451 4.5 -23.9°
Enters shadow 16:57:32 16° 160° (SSE) 2,051 4.0 -24.2°
